,,PressureMeas_1m,,PRMeasQMR101_1,,RHStat155_1m_1,,SRMeasQMS101R_1m,,TAStat155_1m_1,,GenWind_1,,GenWind_1,
2017-07-01, 07:00:07,VALID,917.367,VALID,0.0,VALID,95.217,VALID,59.747,VALID,18.426,VALID,111.0,VALID,0.863,
2017-07-01, 07:01:07,VALID,917.361,VALID,0.0,VALID,94.78,VALID,61.043,VALID,18.481,VALID,118.0,VALID,0.881,
2017-07-01, 07:02:07,VALID,917.368,VALID,0.0,VALID,94.562,VALID,62.044,VALID,18.545,VALID,120.0,VALID,0.751,
2017-07-01, 07:03:07,VALID,917.359,VALID,0.0,VALID,94.443,VALID,62.881,VALID,18.594,VALID,112.0,VALID,0.666,
2017-07-01, 07:04:07,VALID,917.367,VALID,0.0,VALID,94.297,VALID,63.459,VALID,18.634,VALID,107.0,VALID,0.505,
2017-07-01, 07:05:07,VALID,917.363,VALID,0.0,VALID,94.282,VALID,63.732,VALID,18.669,VALID,107.0,VALID,0.55,
2017-07-01, 07:06:07,VALID,917.382,VALID,0.0,VALID,94.211,VALID,63.95,VALID,18.688,VALID,110.0,VALID,0.547,
2017-07-01, 07:07:07,VALID,917.395,VALID,0.0,VALID,94.18,VALID,63.848,VALID,18.704,VALID,116.0,VALID,0.636,
2017-07-01, 07:08:07,VALID,917.403,VALID,0.0,VALID,94.175,VALID,63.717,VALID,18.722,VALID,112.0,VALID,0.616,
2017-07-01, 07:09:07,VALID,917.43,VALID,0.0,VALID,94.233,VALID,63.776,VALID,18.728,VALID,110.0,VALID,0.718,
2017-07-01, 07:10:07,VALID,917.448,VALID,0.0,VALID,94.194,VALID,63.495,VALID,18.748,VALID,110.0,VALID,0.683,
2017-07-01, 07:11:07,VALID,917.471,VALID,0.0,VALID,94.032,VALID,62.915,VALID,18.769,VALID,108.0,VALID,0.668,
2017-07-01, 07:12:07,VALID,917.483,VALID,0.0,VALID,93.956,VALID,62.201,VALID,18.786,VALID,112.0,VALID,0.592,
2017-07-01, 07:13:07,VALID,917.494,VALID,0.0,VALID,93.967,VALID,61.178,VALID,18.796,VALID,120.0,VALID,0.642,
2017-07-01, 07:14:07,VALID,917.493,VALID,0.0,VALID,93.942,VALID,59.928,VALID,18.817,VALID,127.0,VALID,0.614,
2017-07-01, 07:15:07,VALID,917.486,VALID,0.0,VALID,93.968,VALID,58.292,VALID,18.844,VALID,130.0,VALID,0.557,
2017-07-01, 07:16:07,VALID,917.464,VALID,0.0,VALID,94.176,VALID,56.511,VALID,18.868,VALID,134.0,VALID,0.684,
2017-07-01, 07:17:07,VALID,917.455,VALID,0.0,VALID,94.247,VALID,55.195,VALID,18.88,VALID,135.0,VALID,0.685,
2017-07-01, 07:18:07,VALID,917.451,VALID,0.0,VALID,94.059,VALID,54.301,VALID,18.882,VALID,139.0,VALID,0.8,
2017-07-01, 07:19:07,VALID,917.447,VALID,0.0,VALID,93.541,VALID,53.906,VALID,18.903,VALID,136.0,VALID,0.644,
2017-07-01, 07:20:07,VALID,917.443,VALID,0.0,VALID,93.26,VALID,54.251,VALID,18.929,VALID,134.0,VALID,0.607,
2017-07-01, 07:21:07,VALID,917.435,VALID,0.0,VALID,93.408,VALID,55.129,VALID,18.955,VALID,133.0,VALID,0.493,
2017-07-01, 07:22:07,VALID,917.429,VALID,0.0,VALID,93.551,VALID,56.493,VALID,18.959,VALID,144.0,VALID,0.343,
2017-07-01, 07:23:07,VALID,917.431,VALID,0.0,VALID,93.671,VALID,58.092,VALID,18.964,VALID,160.0,VALID,0.3,
2017-07-01, 07:24:07,VALID,917.425,VALID,0.0,VALID,93.035,VALID,59.958,VALID,18.964,VALID,160.0,VALID,0.439,
2017-07-01, 07:25:07,VALID,917.43,VALID,0.0,VALID,92.714,VALID,61.924,VALID,18.988,VALID,160.0,VALID,0.329,
2017-07-01, 07:26:07,VALID,917.429,VALID,0.0,VALID,92.616,VALID,63.746,VALID,19.015,VALID,160.0,VALID,0.245,
2017-07-01, 07:27:07,VALID,917.432,VALID,0.0,VALID,92.17,VALID,65.118,VALID,19.037,VALID,160.0,VALID,0.132,
2017-07-01, 07:28:07,VALID,917.418,VALID,0.0,VALID,91.721,VALID,66.183,VALID,19.07,VALID,160.0,VALID,0.003,
2017-07-01, 07:29:07,VALID,917.418,VALID,0.0,VALID,91.05,VALID,67.265,VALID,19.117,VALID,160.0,VALID,0.0,
2017-07-01, 07:30:07,VALID,917.422,VALID,0.0,VALID,91.049,VALID,68.72,VALID,19.186,VALID,160.0,VALID,0.0,
2017-07-01, 07:31:07,VALID,917.431,VALID,0.0,VALID,90.212,VALID,70.47,VALID,19.248,VALID,160.0,VALID,0.0,
2017-07-01, 07:32:07,VALID,917.437,VALID,0.0,VALID,90.336,VALID,72.599,VALID,19.338,VALID,160.0,VALID,0.0,
2017-07-01, 07:33:07,VALID,917.451,VALID,0.0,VALID,90.604,VALID,75.091,VALID,19.424,VALID,160.0,VALID,0.0,
2017-07-01, 07:34:07,VALID,917.446,VALID,0.0,VALID,91.9,VALID,77.961,VALID,19.514,VALID,160.0,VALID,0.0,
2017-07-01, 07:35:07,VALID,917.444,VALID,0.0,VALID,92.223,VALID,81.06,VALID,19.561,VALID,160.0,VALID,0.01,
2017-07-01, 07:36:07,VALID,917.455,VALID,0.0,VALID,92.192,VALID,84.416,VALID,19.58,VALID,134.0,VALID,0.082,
2017-07-01, 07:37:07,VALID,917.475,VALID,0.0,VALID,92.684,VALID,87.811,VALID,19.596,VALID,83.0,VALID,0.228,
2017-07-01, 07:38:07,VALID,917.484,VALID,0.0,VALID,93.135,VALID,91.045,VALID,19.549,VALID,80.0,VALID,0.34,
2017-07-01, 07:39:07,VALID,917.503,VALID,0.0,VALID,93.496,VALID,93.851,VALID,19.462,VALID,69.0,VALID,0.624,
2017-07-01, 07:40:07,VALID,917.515,VALID,0.0,VALID,92.656,VALID,96.735,VALID,19.379,VALID,67.0,VALID,0.671,
2017-07-01, 07:41:07,VALID,917.53,VALID,0.0,VALID,92.523,VALID,100.031,VALID,19.363,VALID,67.0,VALID,0.425,
2017-07-01, 07:42:07,VALID,917.541,VALID,0.0,VALID,92.744,VALID,103.812,VALID,19.387,VALID,59.0,VALID,0.254,
2017-07-01, 07:43:07,VALID,917.547,VALID,0.0,VALID,92.068,VALID,107.848,VALID,19.438,VALID,58.0,VALID,0.009,
2017-07-01, 07:44:07,VALID,917.561,VALID,0.0,VALID,92.108,VALID,111.871,VALID,19.488,VALID,58.0,VALID,0.001,
2017-07-01, 07:45:06,VALID,917.597,VALID,0.0,VALID,91.748,VALID,115.483,VALID,19.533,VALID,58.0,VALID,0.038,
2017-07-01, 07:46:06,VALID,917.601,VALID,0.0,VALID,91.742,VALID,118.557,VALID,19.597,VALID,58.0,VALID,0.0,
2017-07-01, 07:47:06,VALID,917.63,VALID,0.0,VALID,92.052,VALID,121.307,VALID,19.684,VALID,58.0,VALID,0.0,
2017-07-01, 07:48:06,VALID,917.644,VALID,0.0,VALID,91.599,VALID,123.914,VALID,19.771,VALID,58.0,VALID,0.0,
2017-07-01, 07:49:06,VALID,917.646,VALID,0.0,VALID,91.024,VALID,126.042,VALID,19.808,VALID,58.0,VALID,0.0,
2017-07-01, 07:50:06,VALID,917.669,VALID,0.0,VALID,91.287,VALID,127.818,VALID,19.862,VALID,58.0,VALID,0.0,
2017-07-01, 07:51:06,VALID,917.672,VALID,0.0,VALID,90.743,VALID,129.529,VALID,19.922,VALID,58.0,VALID,0.0,
2017-07-01, 07:52:06,VALID,917.672,VALID,0.0,VALID,89.874,VALID,131.321,VALID,19.977,VALID,58.0,VALID,0.0,
2017-07-01, 07:53:06,VALID,917.699,VALID,0.0,VALID,88.484,VALID,132.791,VALID,20.02,VALID,58.0,VALID,0.0,
2017-07-01, 07:54:06,VALID,917.73,VALID,0.0,VALID,87.793,VALID,134.114,VALID,20.071,VALID,58.0,VALID,0.0,
2017-07-01, 07:55:06,VALID,917.759,VALID,0.0,VALID,87.58,VALID,135.386,VALID,20.144,VALID,58.0,VALID,0.0,
2017-07-01, 07:56:06,VALID,917.789,VALID,0.0,VALID,86.917,VALID,137.027,VALID,20.219,VALID,56.0,VALID,0.0,
2017-07-01, 07:57:06,VALID,917.816,VALID,0.0,VALID,87.339,VALID,139.03,VALID,20.304,VALID,43.0,VALID,0.0,
2017-07-01, 07:58:06,VALID,917.811,VALID,0.0,VALID,88.03,VALID,141.323,VALID,20.364,VALID,42.0,VALID,0.0,
2017-07-01, 07:59:06,VALID,917.833,VALID,0.0,VALID,87.488,VALID,143.681,VALID,20.363,VALID,42.0,VALID,0.0,
2017-07-01, 08:00:06,VALID,917.837,VALID,0.0,VALID,87.499,VALID,146.073,VALID,20.38,VALID,42.0,VALID,0.0,
2017-07-01, 08:01:06,VALID,917.831,VALID,0.0,VALID,88.335,VALID,148.263,VALID,20.42,VALID,42.0,VALID,0.0,
2017-07-01, 08:02:06,VALID,917.838,VALID,0.0,VALID,89.256,VALID,150.843,VALID,20.433,VALID,42.0,VALID,0.0,
2017-07-01, 08:03:06,VALID,917.832,VALID,0.0,VALID,90.025,VALID,153.873,VALID,20.433,VALID,43.0,VALID,0.0,
2017-07-01, 08:04:06,VALID,917.843,VALID,0.0,VALID,89.367,VALID,157.299,VALID,20.477,VALID,42.0,VALID,0.0,
2017-07-01, 08:05:06,VALID,917.851,VALID,0.0,VALID,88.221,VALID,160.894,VALID,20.546,VALID,355.0,VALID,0.291,
2017-07-01, 08:06:06,VALID,917.856,VALID,0.0,VALID,87.519,VALID,164.459,VALID,20.577,VALID,358.0,VALID,0.235,
2017-07-01, 08:07:06,VALID,917.871,VALID,0.0,VALID,86.396,VALID,167.911,VALID,20.599,VALID,7.0,VALID,0.23,
2017-07-01, 08:08:06,VALID,917.88,VALID,0.0,VALID,86.565,VALID,171.309,VALID,20.653,VALID,6.0,VALID,0.027,
2017-07-01, 08:09:06,VALID,917.896,VALID,0.0,VALID,86.378,VALID,174.479,VALID,20.71,VALID,44.0,VALID,0.246,
2017-07-01, 08:10:06,VALID,917.905,VALID,0.0,VALID,86.558,VALID,177.567,VALID,20.677,VALID,57.0,VALID,0.301,
2017-07-01, 08:11:06,VALID,917.929,VALID,0.0,VALID,86.004,VALID,180.716,VALID,20.624,VALID,44.0,VALID,0.175,
2017-07-01, 08:12:06,VALID,917.927,VALID,0.0,VALID,87.165,VALID,183.781,VALID,20.635,VALID,83.0,VALID,0.327,
2017-07-01, 08:13:06,VALID,917.93,VALID,0.0,VALID,88.433,VALID,186.747,VALID,20.678,VALID,356.0,VALID,0.187,
2017-07-01, 08:14:06,VALID,917.928,VALID,0.0,VALID,88.336,VALID,190.292,VALID,20.769,VALID,22.0,VALID,0.111,
2017-07-01, 08:15:06,VALID,917.949,VALID,0.0,VALID,86.601,VALID,195.213,VALID,20.811,VALID,75.0,VALID,0.005,
2017-07-01, 08:16:06,VALID,917.96,VALID,0.0,VALID,87.693,VALID,202.499,VALID,20.855,VALID,75.0,VALID,0.096,
2017-07-01, 08:17:06,VALID,917.957,VALID,0.0,VALID,86.421,VALID,215.982,VALID,20.853,VALID,68.0,VALID,0.366,
2017-07-01, 08:18:06,VALID,917.968,VALID,0.0,VALID,86.361,VALID,224.306,VALID,20.855,VALID,57.0,VALID,0.72,
2017-07-01, 08:19:06,VALID,917.974,VALID,0.0,VALID,86.764,VALID,231.038,VALID,20.834,VALID,36.0,VALID,0.623,
2017-07-01, 08:20:06,VALID,917.98,VALID,0.0,VALID,86.752,VALID,240.604,VALID,20.888,VALID,39.0,VALID,0.564,
2017-07-01, 08:21:06,VALID,917.994,VALID,0.0,VALID,85.489,VALID,250.806,VALID,20.927,VALID,66.0,VALID,0.849,
2017-07-01, 08:22:06,VALID,917.993,VALID,0.0,VALID,85.161,VALID,261.5,VALID,20.905,VALID,58.0,VALID,0.728,
2017-07-01, 08:23:06,VALID,917.984,VALID,0.0,VALID,84.272,VALID,279.16,VALID,20.915,VALID,61.0,VALID,0.317,
2017-07-01, 08:24:06,VALID,917.963,VALID,0.0,VALID,84.484,VALID,285.985,VALID,20.951,VALID,59.0,VALID,0.273,
2017-07-01, 08:25:06,VALID,917.946,VALID,0.0,VALID,85.458,VALID,293.829,VALID,21.052,VALID,53.0,VALID,0.253,
2017-07-01, 08:26:06,VALID,917.95,VALID,0.0,VALID,86.171,VALID,301.304,VALID,21.197,VALID,48.0,VALID,0.015,
2017-07-01, 08:27:06,VALID,917.939,VALID,0.0,VALID,86.419,VALID,348.213,VALID,21.38,VALID,40.0,VALID,0.028,
2017-07-01, 08:28:06,VALID,917.943,VALID,0.0,VALID,82.972,VALID,374.79,VALID,21.572,VALID,352.0,VALID,0.315,
2017-07-01, 08:29:06,VALID,917.941,VALID,0.0,VALID,82.054,VALID,358.57,VALID,21.726,VALID,14.0,VALID,0.404,
2017-07-01, 08:30:06,VALID,917.943,VALID,0.0,VALID,83.752,VALID,371.616,VALID,21.852,VALID,287.0,VALID,0.215,
2017-07-01, 08:31:06,VALID,917.975,VALID,0.0,VALID,84.462,VALID,390.279,VALID,21.872,VALID,273.0,VALID,0.157,
2017-07-01, 08:32:06,VALID,917.984,VALID,0.0,VALID,83.866,VALID,363.529,VALID,21.896,VALID,278.0,VALID,0.064,
2017-07-01, 08:33:06,VALID,917.985,VALID,0.0,VALID,83.188,VALID,357.463,VALID,21.911,VALID,277.0,VALID,0.219,
2017-07-01, 08:34:06,VALID,917.996,VALID,0.0,VALID,81.768,VALID,357.74,VALID,21.839,VALID,277.0,VALID,0.349,
2017-07-01, 08:35:06,VALID,918.011,VALID,0.0,VALID,81.775,VALID,356.905,VALID,21.735,VALID,296.0,VALID,0.546,
2017-07-01, 08:36:06,VALID,918.027,VALID,0.0,VALID,81.843,VALID,359.615,VALID,21.612,VALID,287.0,VALID,0.485,
2017-07-01, 08:37:06,VALID,918.048,VALID,0.0,VALID,81.813,VALID,353.044,VALID,21.499,VALID,291.0,VALID,0.524,
2017-07-01, 08:38:06,VALID,918.058,VALID,0.0,VALID,82.523,VALID,359.618,VALID,21.41,VALID,293.0,VALID,0.397,
2017-07-01, 08:39:06,VALID,918.055,VALID,0.0,VALID,82.607,VALID,371.115,VALID,21.397,VALID,305.0,VALID,0.422,
2017-07-01, 08:40:06,VALID,918.062,VALID,0.0,VALID,82.76,VALID,370.173,VALID,21.351,VALID,299.0,VALID,0.124,
2017-07-01, 08:41:06,VALID,918.07,VALID,0.0,VALID,83.328,VALID,377.377,VALID,21.375,VALID,292.0,VALID,0.32,
2017-07-01, 08:42:06,VALID,918.082,VALID,0.0,VALID,82.224,VALID,372.16,VALID,21.417,VALID,286.0,VALID,0.295,
2017-07-01, 08:43:06,VALID,918.104,VALID,0.0,VALID,81.307,VALID,352.567,VALID,21.485,VALID,275.0,VALID,0.164,
2017-07-01, 08:44:06,VALID,918.113,VALID,0.0,VALID,81.892,VALID,359.632,VALID,21.584,VALID,275.0,VALID,0.031,
2017-07-01, 08:45:06,VALID,918.125,VALID,0.0,VALID,80.96,VALID,365.741,VALID,21.741,VALID,273.0,VALID,0.021,
2017-07-01, 08:46:06,VALID,918.14,VALID,0.0,VALID,80.694,VALID,469.176,VALID,21.881,VALID,272.0,VALID,0.161,
2017-07-01, 08:47:06,VALID,918.146,VALID,0.0,VALID,79.593,VALID,467.515,VALID,21.951,VALID,294.0,VALID,0.221,
2017-07-01, 08:48:06,VALID,918.152,VALID,0.0,VALID,79.671,VALID,410.099,VALID,22.083,VALID,283.0,VALID,0.357,
2017-07-01, 08:49:06,VALID,918.157,VALID,0.0,VALID,78.588,VALID,451.914,VALID,22.105,VALID,296.0,VALID,0.685,
2017-07-01, 08:50:06,VALID,918.143,VALID,0.0,VALID,79.327,VALID,426.469,VALID,22.1,VALID,306.0,VALID,0.232,
2017-07-01, 08:51:06,VALID,918.132,VALID,0.0,VALID,79.245,VALID,416.184,VALID,22.184,VALID,300.0,VALID,0.576,
2017-07-01, 08:52:06,VALID,918.12,VALID,0.0,VALID,79.173,VALID,400.218,VALID,22.185,VALID,327.0,VALID,0.477,
2017-07-01, 08:53:06,VALID,918.1,VALID,0.0,VALID,80.273,VALID,455.713,VALID,22.323,VALID,3.0,VALID,0.949,
2017-07-01, 08:54:06,VALID,918.11,VALID,0.0,VALID,81.235,VALID,451.051,VALID,22.516,VALID,352.0,VALID,1.172,
2017-07-01, 08:55:06,VALID,918.118,VALID,0.0,VALID,79.482,VALID,451.014,VALID,22.638,VALID,355.0,VALID,1.132,
2017-07-01, 08:56:06,VALID,918.119,VALID,0.0,VALID,79.942,VALID,443.507,VALID,22.7,VALID,13.0,VALID,1.109,
2017-07-01, 08:57:06,VALID,918.112,VALID,0.0,VALID,78.74,VALID,475.551,VALID,22.802,VALID,349.0,VALID,1.628,
2017-07-01, 08:58:06,VALID,918.115,VALID,0.0,VALID,79.247,VALID,610.967,VALID,22.76,VALID,355.0,VALID,1.063,
2017-07-01, 08:59:06,VALID,918.122,VALID,0.0,VALID,78.496,VALID,567.628,VALID,22.776,VALID,338.0,VALID,1.037,
2017-07-01, 09:00:06,VALID,918.135,VALID,0.0,VALID,77.491,VALID,596.484,VALID,22.808,VALID,339.0,VALID,0.438,
2017-07-01, 09:01:06,VALID,918.145,VALID,0.0,VALID,79.598,VALID,594.939,VALID,23.051,VALID,13.0,VALID,0.306,
2017-07-01, 09:02:06,VALID,918.146,VALID,0.0,VALID,77.236,VALID,687.906,VALID,23.379,VALID,338.0,VALID,0.596,
2017-07-01, 09:03:06,VALID,918.138,VALID,0.0,VALID,73.812,VALID,580.024,VALID,23.595,VALID,15.0,VALID,1.917,
2017-07-01, 09:04:06,VALID,918.157,VALID,0.0,VALID,73.266,VALID,528.7,VALID,23.559,VALID,357.0,VALID,1.318,
2017-07-01, 09:05:06,VALID,918.163,VALID,0.0,VALID,73.579,VALID,431.151,VALID,23.556,VALID,22.0,VALID,0.886,
2017-07-01, 09:06:06,VALID,918.158,VALID,0.0,VALID,74.893,VALID,397.922,VALID,23.666,VALID,1.0,VALID,0.652,
2017-07-01, 09:07:06,VALID,918.168,VALID,0.0,VALID,74.186,VALID,422.817,VALID,23.609,VALID,308.0,VALID,0.554,
2017-07-01, 09:08:06,VALID,918.17,VALID,0.0,VALID,73.165,VALID,492.695,VALID,23.412,VALID,308.0,VALID,0.326,
2017-07-01, 09:09:06,VALID,918.185,VALID,0.0,VALID,73.991,VALID,482.34,VALID,23.495,VALID,310.0,VALID,0.387,
2017-07-01, 09:10:06,VALID,918.193,VALID,0.0,VALID,73.674,VALID,447.157,VALID,23.5,VALID,358.0,VALID,0.558,
2017-07-01, 09:11:06,VALID,918.208,VALID,0.0,VALID,72.383,VALID,521.318,VALID,23.469,VALID,348.0,VALID,1.155,
2017-07-01, 09:12:06,VALID,918.234,VALID,0.0,VALID,71.791,VALID,780.911,VALID,23.521,VALID,358.0,VALID,1.014,
2017-07-01, 09:13:06,VALID,918.247,VALID,0.0,VALID,72.748,VALID,659.001,VALID,23.651,VALID,27.0,VALID,0.925,
2017-07-01, 09:14:06,VALID,918.256,VALID,0.0,VALID,73.393,VALID,658.243,VALID,23.916,VALID,355.0,VALID,0.182,
2017-07-01, 09:15:06,VALID,918.274,VALID,0.0,VALID,73.574,VALID,551.419,VALID,24.277,VALID,20.0,VALID,0.62,
2017-07-01, 09:16:06,VALID,918.292,VALID,0.0,VALID,71.261,VALID,561.948,VALID,24.53,VALID,35.0,VALID,0.252,
2017-07-01, 09:17:06,VALID,918.297,VALID,0.0,VALID,68.884,VALID,597.849,VALID,24.689,VALID,2.0,VALID,0.841,
2017-07-01, 09:18:06,VALID,918.305,VALID,0.0,VALID,68.969,VALID,525.993,VALID,24.668,VALID,343.0,VALID,1.04,
2017-07-01, 09:19:06,VALID,918.311,VALID,0.0,VALID,69.671,VALID,530.715,VALID,24.484,VALID,347.0,VALID,0.514,
2017-07-01, 09:20:06,VALID,918.336,VALID,0.0,VALID,69.771,VALID,601.703,VALID,24.364,VALID,333.0,VALID,0.713,
2017-07-01, 09:21:06,VALID,918.343,VALID,0.0,VALID,71.566,VALID,473.676,VALID,24.131,VALID,299.0,VALID,0.686,
2017-07-01, 09:22:06,VALID,918.343,VALID,0.0,VALID,71.802,VALID,556.369,VALID,23.812,VALID,273.0,VALID,0.663,
2017-07-01, 09:23:06,VALID,918.355,VALID,0.0,VALID,74.458,VALID,447.058,VALID,23.713,VALID,310.0,VALID,0.211,
2017-07-01, 09:24:06,VALID,918.357,VALID,0.0,VALID,74.052,VALID,427.498,VALID,23.791,VALID,27.0,VALID,0.085,
2017-07-01, 09:25:06,VALID,918.356,VALID,0.0,VALID,72.002,VALID,477.111,VALID,23.756,VALID,294.0,VALID,1.184,
2017-07-01, 09:26:06,VALID,918.356,VALID,0.0,VALID,72.824,VALID,737.178,VALID,23.502,VALID,323.0,VALID,0.238,
2017-07-01, 09:27:06,VALID,918.339,VALID,0.0,VALID,74.067,VALID,792.666,VALID,23.547,VALID,57.0,VALID,0.614,
2017-07-01, 09:28:06,VALID,918.338,VALID,0.0,VALID,74.411,VALID,825.54,VALID,23.744,VALID,46.0,VALID,0.138,
2017-07-01, 09:29:06,VALID,918.325,VALID,0.0,VALID,74.083,VALID,801.906,VALID,24.11,VALID,260.0,VALID,0.305,
2017-07-01, 09:30:06,VALID,918.31,VALID,0.0,VALID,72.692,VALID,749.653,VALID,24.225,VALID,294.0,VALID,0.575,
2017-07-01, 09:31:06,VALID,918.299,VALID,0.0,VALID,72.72,VALID,629.338,VALID,24.226,VALID,274.0,VALID,0.741,
2017-07-01, 09:32:06,VALID,918.303,VALID,0.0,VALID,69.344,VALID,641.647,VALID,24.061,VALID,288.0,VALID,1.151,
2017-07-01, 09:33:06,VALID,918.31,VALID,0.0,VALID,70.513,VALID,800.778,VALID,23.775,VALID,279.0,VALID,0.697,
2017-07-01, 09:34:06,VALID,918.339,VALID,0.0,VALID,71.485,VALID,847.22,VALID,23.701,VALID,294.0,VALID,0.479,
2017-07-01, 09:35:06,VALID,918.358,VALID,0.0,VALID,71.517,VALID,826.47,VALID,23.872,VALID,325.0,VALID,0.461,
2017-07-01, 09:36:06,VALID,918.39,VALID,0.0,VALID,69.929,VALID,799.552,VALID,24.081,VALID,284.0,VALID,1.013,
2017-07-01, 09:37:06,VALID,918.401,VALID,0.0,VALID,67.269,VALID,808.256,VALID,23.972,VALID,279.0,VALID,0.339,
2017-07-01, 09:38:06,VALID,918.411,VALID,0.0,VALID,69.313,VALID,801.969,VALID,23.965,VALID,332.0,VALID,0.49,
2017-07-01, 09:39:06,VALID,918.432,VALID,0.0,VALID,69.886,VALID,801.322,VALID,24.248,VALID,8.0,VALID,1.766,
2017-07-01, 09:40:06,VALID,918.435,VALID,0.0,VALID,67.388,VALID,799.886,VALID,24.402,VALID,289.0,VALID,0.579,
2017-07-01, 09:41:06,VALID,918.442,VALID,0.0,VALID,66.851,VALID,796.999,VALID,24.392,VALID,308.0,VALID,0.475,
2017-07-01, 09:42:06,VALID,918.431,VALID,0.0,VALID,68.37,VALID,794.429,VALID,24.46,VALID,317.0,VALID,0.739,
2017-07-01, 09:43:06,VALID,918.439,VALID,0.0,VALID,67.605,VALID,791.686,VALID,24.689,VALID,298.0,VALID,0.456,
2017-07-01, 09:44:06,VALID,918.423,VALID,0.0,VALID,64.932,VALID,791.81,VALID,24.893,VALID,330.0,VALID,0.154,
2017-07-01, 09:45:06,VALID,918.432,VALID,0.0,VALID,65.398,VALID,794.578,VALID,25.1,VALID,4.0,VALID,1.019,
2017-07-01, 09:46:06,VALID,918.433,VALID,0.0,VALID,65.298,VALID,794.722,VALID,25.177,VALID,329.0,VALID,0.714,
2017-07-01, 09:47:06,VALID,918.439,VALID,0.0,VALID,65.499,VALID,793.372,VALID,25.341,VALID,4.0,VALID,1.193,
2017-07-01, 09:48:06,VALID,918.456,VALID,0.0,VALID,63.39,VALID,782.891,VALID,25.516,VALID,322.0,VALID,0.42,
2017-07-01, 09:49:06,VALID,918.467,VALID,0.0,VALID,62.99,VALID,766.388,VALID,25.575,VALID,28.0,VALID,0.09,
2017-07-01, 09:50:06,VALID,918.47,VALID,0.0,VALID,63.012,VALID,727.382,VALID,25.659,VALID,308.0,VALID,0.352,
2017-07-01, 09:51:06,VALID,918.483,VALID,0.0,VALID,64.269,VALID,739.28,VALID,25.637,VALID,9.0,VALID,0.771,
2017-07-01, 09:52:06,VALID,918.493,VALID,0.0,VALID,64.714,VALID,755.245,VALID,25.492,VALID,336.0,VALID,1.223,
2017-07-01, 09:53:06,VALID,918.496,VALID,0.0,VALID,64.869,VALID,805.103,VALID,25.298,VALID,327.0,VALID,1.012,
2017-07-01, 09:54:06,VALID,918.481,VALID,0.0,VALID,65.964,VALID,836.636,VALID,25.262,VALID,6.0,VALID,1.914,
2017-07-01, 09:55:06,VALID,918.485,VALID,0.0,VALID,65.562,VALID,696.796,VALID,25.066,VALID,2.0,VALID,1.663,
2017-07-01, 09:56:06,VALID,918.5,VALID,0.0,VALID,65.557,VALID,756.748,VALID,24.756,VALID,303.0,VALID,0.773,
2017-07-01, 09:57:06,VALID,918.496,VALID,0.0,VALID,67.426,VALID,810.589,VALID,24.805,VALID,18.0,VALID,0.365,
2017-07-01, 09:58:06,VALID,918.495,VALID,0.0,VALID,68.608,VALID,862.938,VALID,25.203,VALID,353.0,VALID,0.58,
2017-07-01, 09:59:06,VALID,918.491,VALID,0.0,VALID,64.841,VALID,834.179,VALID,25.42,VALID,338.0,VALID,0.963,
2017-07-01, 10:00:06,VALID,918.49,VALID,0.0,VALID,64.98,VALID,793.2,VALID,25.402,VALID,343.0,VALID,0.933,
2017-07-01, 10:01:06,VALID,918.483,VALID,0.0,VALID,64.259,VALID,774.644,VALID,25.301,VALID,336.0,VALID,1.042,
2017-07-01, 10:02:06,VALID,918.461,VALID,0.0,VALID,65.954,VALID,723.14,VALID,25.239,VALID,34.0,VALID,1.325,
2017-07-01, 10:03:06,VALID,918.458,VALID,0.0,VALID,66.686,VALID,697.079,VALID,25.405,VALID,359.0,VALID,0.843,
2017-07-01, 10:04:06,VALID,918.418,VALID,0.0,VALID,64.926,VALID,616.728,VALID,25.583,VALID,14.0,VALID,1.514,
2017-07-01, 10:05:06,VALID,918.407,VALID,0.0,VALID,62.126,VALID,575.62,VALID,25.421,VALID,352.0,VALID,1.407,
2017-07-01, 10:06:06,VALID,918.422,VALID,0.0,VALID,64.097,VALID,626.236,VALID,25.001,VALID,350.0,VALID,1.167,
2017-07-01, 10:07:06,VALID,918.404,VALID,0.0,VALID,66.746,VALID,650.351,VALID,24.947,VALID,16.0,VALID,1.194,
2017-07-01, 10:08:06,VALID,918.4,VALID,0.0,VALID,67.002,VALID,551.236,VALID,25.051,VALID,15.0,VALID,1.178,
2017-07-01, 10:09:06,VALID,918.393,VALID,0.0,VALID,66.121,VALID,528.198,VALID,25.223,VALID,26.0,VALID,0.87,
2017-07-01, 10:10:06,VALID,918.393,VALID,0.0,VALID,65.351,VALID,545.535,VALID,25.38,VALID,35.0,VALID,1.163,
2017-07-01, 10:11:06,VALID,918.401,VALID,0.0,VALID,64.235,VALID,609.452,VALID,25.517,VALID,14.0,VALID,1.11,
2017-07-01, 10:12:06,VALID,918.396,VALID,0.0,VALID,63.509,VALID,716.323,VALID,25.486,VALID,3.0,VALID,0.643,
2017-07-01, 10:13:06,VALID,918.386,VALID,0.0,VALID,64.941,VALID,781.668,VALID,25.397,VALID,31.0,VALID,0.895,
2017-07-01, 10:14:06,VALID,918.377,VALID,0.0,VALID,65.92,VALID,810.054,VALID,25.576,VALID,20.0,VALID,0.917,
2017-07-01, 10:15:06,VALID,918.362,VALID,0.0,VALID,66.277,VALID,814.841,VALID,25.829,VALID,22.0,VALID,1.182,
2017-07-01, 10:16:06,VALID,918.36,VALID,0.0,VALID,65.501,VALID,888.677,VALID,25.864,VALID,360.0,VALID,0.452,
2017-07-01, 10:17:06,VALID,918.347,VALID,0.0,VALID,64.545,VALID,847.987,VALID,25.958,VALID,327.0,VALID,0.276,
2017-07-01, 10:18:06,VALID,918.339,VALID,0.0,VALID,63.95,VALID,825.37,VALID,26.09,VALID,329.0,VALID,0.397,
2017-07-01, 10:19:06,VALID,918.328,VALID,0.0,VALID,63.352,VALID,837.658,VALID,26.011,VALID,321.0,VALID,0.818,
2017-07-01, 10:20:06,VALID,918.309,VALID,0.0,VALID,64.619,VALID,854.306,VALID,25.827,VALID,35.0,VALID,1.438,
2017-07-01, 10:21:06,VALID,918.307,VALID,0.0,VALID,63.515,VALID,862.729,VALID,25.836,VALID,313.0,VALID,0.722,
2017-07-01, 10:22:06,VALID,918.286,VALID,0.0,VALID,65.616,VALID,902.529,VALID,25.773,VALID,5.0,VALID,0.489,
2017-07-01, 10:23:06,VALID,918.264,VALID,0.0,VALID,64.538,VALID,903.834,VALID,26.016,VALID,15.0,VALID,0.621,
2017-07-01, 10:24:06,VALID,918.25,VALID,0.0,VALID,63.145,VALID,863.737,VALID,26.147,VALID,22.0,VALID,1.409,
2017-07-01, 10:25:06,VALID,918.254,VALID,0.0,VALID,64.833,VALID,905.753,VALID,26.173,VALID,348.0,VALID,1.384,
2017-07-01, 10:26:06,VALID,918.259,VALID,0.0,VALID,61.094,VALID,877.706,VALID,26.209,VALID,333.0,VALID,1.223,
2017-07-01, 10:27:06,VALID,918.255,VALID,0.0,VALID,62.348,VALID,872.022,VALID,25.999,VALID,317.0,VALID,0.681,
2017-07-01, 10:28:06,VALID,918.263,VALID,0.0,VALID,62.466,VALID,919.145,VALID,25.99,VALID,184.0,VALID,0.442,
2017-07-01, 10:29:06,VALID,918.245,VALID,0.0,VALID,61.299,VALID,943.662,VALID,25.911,VALID,321.0,VALID,0.696,
2017-07-01, 10:30:06,VALID,918.236,VALID,0.0,VALID,62.381,VALID,930.498,VALID,25.73,VALID,261.0,VALID,0.681,
2017-07-01, 10:31:06,VALID,918.225,VALID,0.0,VALID,64.348,VALID,918.034,VALID,25.816,VALID,340.0,VALID,0.661,
2017-07-01, 10:32:06,VALID,918.192,VALID,0.0,VALID,64.218,VALID,910.014,VALID,26.018,VALID,26.0,VALID,1.08,
2017-07-01, 10:33:06,VALID,918.168,VALID,0.0,VALID,63.532,VALID,903.749,VALID,26.435,VALID,26.0,VALID,0.657,
2017-07-01, 10:34:06,VALID,918.136,VALID,0.0,VALID,62.704,VALID,899.707,VALID,26.851,VALID,356.0,VALID,0.718,
2017-07-01, 10:35:06,VALID,918.118,VALID,0.0,VALID,60.009,VALID,898.43,VALID,27.051,VALID,195.0,VALID,0.421,
2017-07-01, 10:36:06,VALID,918.103,VALID,0.0,VALID,60.237,VALID,901.25,VALID,27.133,VALID,136.0,VALID,0.589,
2017-07-01, 10:37:06,VALID,918.121,VALID,0.0,VALID,60.863,VALID,905.083,VALID,27.21,VALID,183.0,VALID,0.499,